{"data":{"norad_id":61224,"epoch":"2026-09-22T17:50:32.453088Z","epoch_age_seconds":100838,"freshness":"FRESH","line1":"1 61224U 24172E   26265.74343117  .00001180  00000+0  19442-3 0  9994","line2":"2 61224  98.0394 354.6935 0003138 109.9139 250.2407 14.72344454107705","mean_motion":14.72344454,"eccentricity":0.0003138,"inclination_deg":98.0394,"raan_deg":354.6935,"arg_perigee_deg":109.9139,"mean_anomaly_deg":250.2407,"bstar":0.00019442,"rev_number":10770,"period_min":97.803200608925,"perigee_km":651.38706109278,"apogee_km":655.80017522874,"semimajor_km":7031.7306181608,"source":"CELESTRAK","updated_at":"2026-09-23T09:00:20.855328Z"}}